This is the latest recevied weather packets stored in our database for station/object N8BAP. If no packets are shown the sender has not sent any weather packets the latest 10 day(s).
| Time | Temp. | Humidity | Pressure | Rain* | Wind** | Luminosity | Snow |
|---|---|---|---|---|---|---|---|
| 1777815196 | 8.89° C | 58% | 1024.3 hPa | 0 mm | - | 387 W/m² | - |
| 1777814892 | 8.89° C | 64% | 1024.5 hPa | 0 mm | - | 370 W/m² | - |
| 1777814589 | 8.33° C | 62% | 1024.3 hPa | 0 mm | - | 344 W/m² | - |
| 1777814286 | 8.33° C | 62% | 1024.4 hPa | 0 mm | - | 339 W/m² | - |
| 1777813983 | 8.33° C | 62% | 1024.4 hPa | 0 mm | - | 313 W/m² | - |
| 1777813680 | 7.78° C | 66% | 1024.5 hPa | 0 mm | - | 299 W/m² | - |
| 1777813377 | 7.22° C | 64% | 1024.6 hPa | 0 mm | - | 285 W/m² | - |
| 1777813075 | 7.22° C | 67% | 1024.5 hPa | 0 mm | - | 270 W/m² | - |
| 1777812773 | 6.67° C | 68% | 1024.3 hPa | 0 mm | - | 262 W/m² | - |
| 1777812469 | 6.67° C | 68% | 1024.5 hPa | 0 mm | - | 242 W/m² | - |
| 1777812167 | 6.67° C | 67% | 1024.4 hPa | 0 mm | - | 226 W/m² | - |
| 1777811865 | 6.11° C | 69% | 1024.3 hPa | 0 mm | - | 208 W/m² | - |
| 1777811563 | 6.11° C | 69% | 1024.4 hPa | 0 mm | - | 192 W/m² | - |
| 1777811258 | 6.11° C | 71% | 1024.2 hPa | 0 mm | - | 55 W/m² | - |
| 1777810956 | 5.56° C | 70% | 1024.5 hPa | 0 mm | - | 168 W/m² | - |
| 1777810652 | 5.56° C | 72% | 1024.3 hPa | 0 mm | - | 52 W/m² | - |
| 1777810349 | 5.56° C | 72% | 1024.4 hPa | 0 mm | - | 78 W/m² | - |
| 1777810045 | 5° C | 73% | 1024.2 hPa | 0 mm | - | 50 W/m² | - |
| 1777809743 | 5° C | 71% | 1024.1 hPa | 0 mm | - | 48 W/m² | - |
| 1777809440 | 5° C | 74% | 1024.1 hPa | 0 mm | - | 93 W/m² | - |
| 1777809138 | 4.44° C | 75% | 1024 hPa | 0 mm | - | 58 W/m² | - |
| 1777808836 | 4.44° C | 76% | 1024.2 hPa | 0 mm | - | 52 W/m² | - |
| 1777808532 | 3.89° C | 76% | 1024.1 hPa | 0 mm | - | 49 W/m² | - |
| 1777808229 | 3.89° C | 76% | 1024 hPa | 0 mm | - | 44 W/m² | - |
| 1777807928 | 3.89° C | 77% | 1023.9 hPa | 0 mm | - | 42 W/m² | - |
* Rain latest hour (hover to see other rain measurements)
** Current wind speed in m/s (hover to see current wind gust speed)